EST,Max TemperatureF,Mean TemperatureF,Min TemperatureF,Max Dew PointF,MeanDew PointF,Min DewpointF,Max Humidity, Mean Humidity, Min Humidity, Max Sea Level PressureIn, Mean Sea Level PressureIn, Min Sea Level PressureIn, Max VisibilityMiles, Mean VisibilityMiles, Min VisibilityMiles, Max Wind SpeedMPH, Mean Wind SpeedMPH, Max Gust SpeedMPH,PrecipitationIn, CloudCover, Events, WindDirDegrees
2013-2-1,32,26,19,16,11,4,68,49,31,30.22,30.06,29.75,10,4,0,21,16,34,0.00,8,Snow,254
2013-2-2,37,28,19,18,10,3,93,49,37,30.22,30.04,29.95,10,4,1,20,13,28,0.01,8,Snow,199
2013-2-3,44,30,15,18,15,8,88,54,26,29.97,29.86,29.78,10,4,0,17,5,30,0.02,8,Snow,274
2013-2-4,24,21,18,16,14,4,86,79,44,29.98,29.93,29.90,10,5,1,17,9,29,0.00,8,Snow,259
2013-2-5,26,20,14,19,16,11,88,76,63,29.95,29.91,29.85,10,9,2,12,4,,0.00,6,Snow,273
2013-2-6,28,19,10,23,15,6,85,70,58,30.38,30.20,29.92,10,10,6,16,11,23,0.00,5,Snow,262
2013-2-7,37,22,8,25,17,4,84,67,41,30.37,30.24,30.01,10,10,10,12,4,18,0.00,6,,81
2013-2-8,37,27,17,34,21,12,100,85,64,30.18,29.95,29.75,10,3,0,22,9,29,0.22,8,Fog-Rain-Snow,343
2013-2-9,21,11,1,16,12,-1,92,80,73,30.44,30.37,30.19,10,6,2,15,9,21,0.00,7,Snow,309
2013-2-10,45,23,1,28,14,-3,88,68,33,30.41,30.21,29.90,10,10,10,23,5,39,0.00,3,,121
2013-2-11,52,42,33,41,31,19,87,73,37,29.85,29.74,29.60,10,10,5,30,21,43,0.06,7,Rain-Snow,213
2013-2-12,33,32,30,27,25,22,86,76,69,30.01,29.95,29.81,10,9,2,25,18,39,0.00,8,Snow,244
2013-2-13,34,30,25,25,23,21,88,75,64,29.93,29.83,29.76,10,10,8,9,5,,0.00,4,,241
2013-2-14,39,32,25,34,28,20,89,78,65,29.90,29.83,29.78,10,9,8,25,12,37,0.04,6,Rain,202
2013-2-15,37,30,24,28,22,12,81,69,60,30.11,29.99,29.82,10,10,10,24,16,41,0.00,8,,262
2013-2-16,28,24,21,21,14,8,86,64,49,30.10,30.01,29.95,10,8,0,16,7,23,0.00,7,Fog-Snow,252
2013-2-17,21,18,15,16,9,3,80,67,53,30.26,30.07,29.92,10,10,10,18,12,30,0.00,7,,325
2013-2-18,45,30,17,25,11,7,68,52,33,30.29,30.15,29.82,10,10,10,23,9,34,0.00,4,,211
2013-2-19,46,34,23,35,23,15,93,78,44,29.83,29.73,29.59,10,4,0,30,20,44,0.29,8,Fog-Rain-Snow,234
2013-2-20,24,22,19,18,13,7,93,72,57,30.16,29.93,29.81,10,3,0,25,20,40,0.00,8,Fog-Snow,266
2013-2-21,21,16,12,15,11,9,86,74,63,30.43,30.29,30.11,10,8,3,16,11,25,0.00,7,Snow,264
2013-2-22,37,28,18,30,22,12,87,74,48,30.39,30.13,29.97,10,9,1,23,8,30,0.03,6,Snow,126
2013-2-23,37,34,30,30,27,21,87,79,69,29.99,29.93,29.90,10,10,7,16,12,23,0.00,8,,216
2013-2-24,30,29,28,25,23,21,88,79,69,30.14,29.96,29.87,10,6,1,17,10,26,0.00,8,Snow,257
2013-2-25,35,30,24,24,22,20,84,72,54,30.25,30.21,30.12,10,10,10,8,6,,0.00,5,,234
2013-2-26,42,33,24,34,25,18,93,73,49,30.19,29.95,29.62,10,9,4,18,9,26,0.59,4,Rain,59
2013-2-27,39,36,33,37,34,31,100,91,73,29.64,29.60,29.56,10,6,2,12,7,,0.20,8,Rain-Snow,243
2013-2-28,33,32,32,32,30,27,96,91,82,29.80,29.62,29.55,10,5,0,13,7,20,0.04,8,Fog-Snow,251